Year,Month,Day,Hour,Minute,Value (Times are PST for temperature in C)
2016,02,25,00,00,2.40
2016,02,25,00,01,2.40
2016,02,25,00,02,2.40
2016,02,25,00,03,2.40
2016,02,25,00,04,2.40
2016,02,25,00,05,2.40
2016,02,25,00,06,2.40
2016,02,25,00,07,2.40
2016,02,25,00,08,2.40
2016,02,25,00,09,2.50
2016,02,25,00,10,2.50
2016,02,25,00,11,2.50
2016,02,25,00,12,2.50
2016,02,25,00,13,2.50
2016,02,25,00,14,2.60
2016,02,25,00,15,2.60
2016,02,25,00,16,2.60
2016,02,25,00,17,2.60
2016,02,25,00,18,2.50
2016,02,25,00,19,2.50
2016,02,25,00,20,2.40
2016,02,25,00,21,2.40
2016,02,25,00,22,2.30
2016,02,25,00,23,2.30
2016,02,25,00,24,2.30
2016,02,25,00,25,2.20
2016,02,25,00,26,2.20
2016,02,25,00,27,2.20
2016,02,25,00,28,2.20
2016,02,25,00,29,2.10
2016,02,25,00,30,2.10
2016,02,25,00,31,2.10
2016,02,25,00,32,2.00
2016,02,25,00,33,2.00
2016,02,25,00,34,2.00
2016,02,25,00,35,1.90
2016,02,25,00,36,1.90
2016,02,25,00,37,1.90
2016,02,25,00,38,1.90
2016,02,25,00,39,1.90
2016,02,25,00,40,1.90
2016,02,25,00,41,1.80
2016,02,25,00,42,1.80
2016,02,25,00,43,1.80
2016,02,25,00,44,1.80
2016,02,25,00,45,1.80
2016,02,25,00,46,1.80
2016,02,25,00,47,1.80
2016,02,25,00,48,1.70
2016,02,25,00,49,1.70
2016,02,25,00,50,1.70
2016,02,25,00,51,1.70
2016,02,25,00,52,1.70
2016,02,25,00,53,1.70
2016,02,25,00,54,1.70
2016,02,25,00,55,1.70
2016,02,25,00,56,1.60
2016,02,25,00,57,1.60
2016,02,25,00,58,1.60
2016,02,25,00,59,1.60
2016,02,25,01,00,1.60
2016,02,25,01,01,1.60
2016,02,25,01,02,1.60
2016,02,25,01,03,1.60
2016,02,25,01,04,1.60
2016,02,25,01,05,1.60
2016,02,25,01,06,1.70
2016,02,25,01,07,1.70
2016,02,25,01,08,1.70
2016,02,25,01,09,1.70
2016,02,25,01,10,1.70
2016,02,25,01,11,1.70
2016,02,25,01,12,1.70
2016,02,25,01,13,1.70
2016,02,25,01,14,1.70
2016,02,25,01,15,1.70
2016,02,25,01,16,1.70
2016,02,25,01,17,1.70
2016,02,25,01,18,1.80
2016,02,25,01,19,1.80
2016,02,25,01,20,1.80
2016,02,25,01,21,1.80
2016,02,25,01,22,1.80
2016,02,25,01,23,1.80
2016,02,25,01,24,1.70
2016,02,25,01,25,1.70
2016,02,25,01,26,1.70
2016,02,25,01,27,1.60
2016,02,25,01,28,1.60
2016,02,25,01,29,1.50
2016,02,25,01,30,1.50
2016,02,25,01,31,1.50
2016,02,25,01,32,1.40
2016,02,25,01,33,1.40
2016,02,25,01,34,1.40
2016,02,25,01,35,1.30
2016,02,25,01,36,1.30
2016,02,25,01,37,1.30
2016,02,25,01,38,1.30
2016,02,25,01,39,1.30
2016,02,25,01,40,1.30
2016,02,25,01,41,1.30
2016,02,25,01,42,1.30
2016,02,25,01,43,1.30
2016,02,25,01,44,1.20
2016,02,25,01,45,1.20
2016,02,25,01,46,1.20
2016,02,25,01,47,1.20
2016,02,25,01,48,1.20
2016,02,25,01,49,1.20
2016,02,25,01,50,1.20
2016,02,25,01,51,1.20
2016,02,25,01,52,1.20
2016,02,25,01,53,1.10
2016,02,25,01,54,1.10
2016,02,25,01,55,1.10
2016,02,25,01,56,1.10
2016,02,25,01,57,1.10
2016,02,25,01,58,1.00
2016,02,25,01,59,1.00
2016,02,25,02,00,1.00
2016,02,25,02,01,1.00
2016,02,25,02,02,0.90
2016,02,25,02,03,0.90
2016,02,25,02,04,0.90
2016,02,25,02,05,0.90
2016,02,25,02,06,0.90
2016,02,25,02,07,0.90
2016,02,25,02,08,0.90
2016,02,25,02,09,0.90
2016,02,25,02,10,0.90
2016,02,25,02,11,0.90
2016,02,25,02,12,0.90
2016,02,25,02,13,0.90
2016,02,25,02,14,0.90
2016,02,25,02,15,0.80
2016,02,25,02,16,0.80
2016,02,25,02,17,0.80
2016,02,25,02,18,0.80
2016,02,25,02,19,0.80
2016,02,25,02,20,0.80
2016,02,25,02,21,0.80
2016,02,25,02,22,0.80
2016,02,25,02,23,0.80
2016,02,25,02,24,0.80
2016,02,25,02,25,0.80
2016,02,25,02,26,0.80
2016,02,25,02,27,0.70
2016,02,25,02,28,0.70
2016,02,25,02,29,0.70
2016,02,25,02,30,0.70
2016,02,25,02,31,0.80
2016,02,25,02,32,0.80
2016,02,25,02,33,0.80
2016,02,25,02,34,0.80
2016,02,25,02,35,0.80
2016,02,25,02,36,0.80
2016,02,25,02,37,0.80
2016,02,25,02,38,0.80
2016,02,25,02,39,0.90
2016,02,25,02,40,0.90
2016,02,25,02,41,0.90
2016,02,25,02,42,0.90
2016,02,25,02,43,0.90
2016,02,25,02,44,0.90
2016,02,25,02,45,1.00
2016,02,25,02,46,1.00
2016,02,25,02,47,1.00
2016,02,25,02,48,1.00
2016,02,25,02,49,0.90
2016,02,25,02,50,0.90
2016,02,25,02,51,0.90
2016,02,25,02,52,0.90
2016,02,25,02,53,0.90
2016,02,25,02,54,0.90
2016,02,25,02,55,0.90
2016,02,25,02,56,0.90
2016,02,25,02,57,0.90
2016,02,25,02,58,0.90
2016,02,25,02,59,0.90
2016,02,25,03,00,0.90
2016,02,25,03,01,0.90
2016,02,25,03,02,0.80
2016,02,25,03,03,0.80
2016,02,25,03,04,0.80
2016,02,25,03,05,0.80
2016,02,25,03,06,0.80
2016,02,25,03,07,0.70
2016,02,25,03,08,0.70
2016,02,25,03,09,0.70
2016,02,25,03,10,0.80
2016,02,25,03,11,0.80
2016,02,25,03,12,0.70
2016,02,25,03,13,0.70
2016,02,25,03,14,0.70
2016,02,25,03,15,0.70
2016,02,25,03,16,0.70
2016,02,25,03,17,0.70
2016,02,25,03,18,0.60
2016,02,25,03,19,0.60
2016,02,25,03,20,0.60
2016,02,25,03,21,0.60
2016,02,25,03,22,0.50
2016,02,25,03,23,0.50
2016,02,25,03,24,0.50
2016,02,25,03,25,0.40
2016,02,25,03,26,0.40
2016,02,25,03,27,0.40
2016,02,25,03,28,0.40
2016,02,25,03,29,0.40
2016,02,25,03,30,0.30
2016,02,25,03,31,0.40
2016,02,25,03,32,0.40
2016,02,25,03,33,0.40
2016,02,25,03,34,0.50
2016,02,25,03,35,0.50
2016,02,25,03,36,0.50
2016,02,25,03,37,0.50
2016,02,25,03,38,0.60
2016,02,25,03,39,0.60
2016,02,25,03,40,0.50
2016,02,25,03,41,0.50
2016,02,25,03,42,0.50
2016,02,25,03,43,0.50
2016,02,25,03,44,0.50
2016,02,25,03,45,0.50
2016,02,25,03,46,0.50
2016,02,25,03,47,0.40
2016,02,25,03,48,0.40
2016,02,25,03,49,0.40
2016,02,25,03,50,0.40
2016,02,25,03,51,0.40
2016,02,25,03,52,0.40
2016,02,25,03,53,0.40
2016,02,25,03,54,0.30
2016,02,25,03,55,0.30
2016,02,25,03,56,0.30
2016,02,25,03,57,0.30
2016,02,25,03,58,0.30
2016,02,25,03,59,0.30
2016,02,25,04,00,0.40
2016,02,25,04,01,0.40
2016,02,25,04,02,0.50
2016,02,25,04,03,0.50
2016,02,25,04,04,0.60
2016,02,25,04,05,0.60
2016,02,25,04,06,0.60
2016,02,25,04,07,0.60
2016,02,25,04,08,0.60
2016,02,25,04,09,0.50
2016,02,25,04,10,0.50
2016,02,25,04,11,0.50
2016,02,25,04,12,0.40
2016,02,25,04,13,0.40
2016,02,25,04,14,0.40
2016,02,25,04,15,0.30
2016,02,25,04,16,0.30
2016,02,25,04,17,0.30
2016,02,25,04,18,0.30
2016,02,25,04,19,0.30
2016,02,25,04,20,0.30
2016,02,25,04,21,0.30
2016,02,25,04,22,0.30
2016,02,25,04,23,0.30
2016,02,25,04,24,0.30
2016,02,25,04,25,0.30
2016,02,25,04,26,0.30
2016,02,25,04,27,0.30
2016,02,25,04,28,0.30
2016,02,25,04,29,0.30
2016,02,25,04,30,0.30
2016,02,25,04,31,0.30
2016,02,25,04,32,0.40
2016,02,25,04,33,0.40
2016,02,25,04,34,0.50
2016,02,25,04,35,0.50
2016,02,25,04,36,0.60
2016,02,25,04,37,0.70
2016,02,25,04,38,0.80
2016,02,25,04,39,0.80
2016,02,25,04,40,0.80
2016,02,25,04,41,0.90
2016,02,25,04,42,0.90
2016,02,25,04,43,0.90
2016,02,25,04,44,0.80
2016,02,25,04,45,0.80
2016,02,25,04,46,0.80
2016,02,25,04,47,0.80
2016,02,25,04,48,0.80
2016,02,25,04,49,0.70
2016,02,25,04,50,0.70
2016,02,25,04,51,0.60
2016,02,25,04,52,0.60
2016,02,25,04,53,0.50
2016,02,25,04,54,0.50
2016,02,25,04,55,0.40
2016,02,25,04,56,0.40
2016,02,25,04,57,0.40
2016,02,25,04,58,0.40
2016,02,25,04,59,0.40
2016,02,25,05,00,0.40
2016,02,25,05,01,0.40
2016,02,25,05,02,0.40
2016,02,25,05,03,0.40
2016,02,25,05,04,0.50
2016,02,25,05,05,0.50
2016,02,25,05,06,0.60
2016,02,25,05,07,0.60
2016,02,25,05,08,0.70
2016,02,25,05,09,0.70
2016,02,25,05,10,0.80
2016,02,25,05,11,0.80
2016,02,25,05,12,1.00
2016,02,25,05,13,1.10
2016,02,25,05,14,1.10
2016,02,25,05,15,1.20
2016,02,25,05,16,1.20
2016,02,25,05,17,1.20
2016,02,25,05,18,1.20
2016,02,25,05,19,1.20
2016,02,25,05,20,1.30
2016,02,25,05,21,1.30
2016,02,25,05,22,1.30
2016,02,25,05,23,1.20
2016,02,25,05,24,1.20
2016,02,25,05,25,1.20
2016,02,25,05,26,1.20
2016,02,25,05,27,1.10
2016,02,25,05,28,1.10
2016,02,25,05,29,1.10
2016,02,25,05,30,1.00
2016,02,25,05,31,1.00
2016,02,25,05,32,0.90
2016,02,25,05,33,0.80
2016,02,25,05,34,0.70
2016,02,25,05,35,0.60
2016,02,25,05,36,0.60
2016,02,25,05,37,0.50
2016,02,25,05,38,0.50
2016,02,25,05,39,0.50
2016,02,25,05,40,0.50
2016,02,25,05,41,0.50
2016,02,25,05,42,0.50
2016,02,25,05,43,0.60
2016,02,25,05,44,0.60
2016,02,25,05,45,0.60
2016,02,25,05,46,0.60
2016,02,25,05,47,0.60
2016,02,25,05,48,0.60
2016,02,25,05,49,0.60
2016,02,25,05,50,0.70
2016,02,25,05,51,0.70
2016,02,25,05,52,0.70
2016,02,25,05,53,0.70
2016,02,25,05,54,0.70
2016,02,25,05,55,0.80
2016,02,25,05,56,0.80
2016,02,25,05,57,0.90
2016,02,25,05,58,1.00
2016,02,25,05,59,1.10
2016,02,25,06,00,1.30
2016,02,25,06,01,1.40
2016,02,25,06,02,1.60
2016,02,25,06,03,1.70
2016,02,25,06,04,1.80
2016,02,25,06,05,1.90
2016,02,25,06,06,1.90
2016,02,25,06,07,1.90
2016,02,25,06,08,2.00
2016,02,25,06,09,2.00
2016,02,25,06,10,2.00
2016,02,25,06,11,2.00
2016,02,25,06,12,2.10
2016,02,25,06,13,2.10
2016,02,25,06,14,2.00
2016,02,25,06,15,2.00
2016,02,25,06,16,2.00
2016,02,25,06,17,2.00
2016,02,25,06,18,2.00
2016,02,25,06,19,1.90
2016,02,25,06,20,1.90
2016,02,25,06,21,1.90
2016,02,25,06,22,1.90
2016,02,25,06,23,1.90
2016,02,25,06,24,1.90
2016,02,25,06,25,1.90
2016,02,25,06,26,1.90
2016,02,25,06,27,1.90
2016,02,25,06,28,1.90
2016,02,25,06,29,1.90
2016,02,25,06,30,1.90
2016,02,25,06,31,1.90
2016,02,25,06,32,1.90
2016,02,25,06,33,1.90
2016,02,25,06,34,1.90
2016,02,25,06,35,1.90
2016,02,25,06,36,1.90
2016,02,25,06,37,1.90
2016,02,25,06,38,1.90
2016,02,25,06,39,1.90
2016,02,25,06,40,1.90
2016,02,25,06,41,1.90
2016,02,25,06,42,2.00
2016,02,25,06,43,2.00
2016,02,25,06,44,2.00
2016,02,25,06,45,2.00
2016,02,25,06,46,2.00
2016,02,25,06,47,2.00
2016,02,25,06,48,2.10
2016,02,25,06,49,2.10
2016,02,25,06,50,2.10
2016,02,25,06,51,2.10
2016,02,25,06,52,2.10
2016,02,25,06,53,2.20
2016,02,25,06,54,2.20
2016,02,25,06,55,2.20
2016,02,25,06,56,2.20
2016,02,25,06,57,2.30
2016,02,25,06,58,2.30
2016,02,25,06,59,2.40
2016,02,25,07,00,2.50
2016,02,25,07,01,2.50
2016,02,25,07,02,2.60
2016,02,25,07,03,2.60
2016,02,25,07,04,2.70
2016,02,25,07,05,2.70
2016,02,25,07,06,2.80
2016,02,25,07,07,2.80
2016,02,25,07,08,2.90
2016,02,25,07,09,3.00
2016,02,25,07,10,3.20
2016,02,25,07,11,3.20
2016,02,25,07,12,3.30
2016,02,25,07,13,3.40
2016,02,25,07,14,3.40
2016,02,25,07,15,3.50
2016,02,25,07,16,3.60
2016,02,25,07,17,3.70
2016,02,25,07,18,3.80
2016,02,25,07,19,3.80
2016,02,25,07,20,3.80
2016,02,25,07,21,3.80
2016,02,25,07,22,3.80
2016,02,25,07,23,3.70
2016,02,25,07,24,3.70
2016,02,25,07,25,3.60
2016,02,25,07,26,3.60
2016,02,25,07,27,3.60
2016,02,25,07,28,3.60
2016,02,25,07,29,3.70
2016,02,25,07,30,3.70
2016,02,25,07,31,3.70
2016,02,25,07,32,3.70
2016,02,25,07,33,3.70
2016,02,25,07,34,3.80
2016,02,25,07,35,3.80
2016,02,25,07,36,3.80
2016,02,25,07,37,3.80
2016,02,25,07,38,3.80
2016,02,25,07,39,3.80
2016,02,25,07,40,3.80
2016,02,25,07,41,3.80
2016,02,25,07,42,3.80
2016,02,25,07,43,3.90
2016,02,25,07,44,3.90
2016,02,25,07,45,4.00
2016,02,25,07,46,4.10
2016,02,25,07,47,4.30
2016,02,25,07,48,4.50
2016,02,25,07,49,4.70
2016,02,25,07,50,5.00
2016,02,25,07,51,5.20
2016,02,25,07,52,5.40
2016,02,25,07,53,5.50
2016,02,25,07,54,5.70
2016,02,25,07,55,6.00
2016,02,25,07,56,6.10
2016,02,25,07,57,6.30
2016,02,25,07,58,6.40
2016,02,25,07,59,6.50
2016,02,25,08,00,6.60
2016,02,25,08,01,6.70
2016,02,25,08,02,6.90
2016,02,25,08,03,7.00
2016,02,25,08,04,7.00
2016,02,25,08,05,7.10
2016,02,25,08,06,7.20
2016,02,25,08,07,7.30
2016,02,25,08,08,7.30
2016,02,25,08,09,7.40
2016,02,25,08,10,7.40
2016,02,25,08,11,7.50
2016,02,25,08,12,7.50
2016,02,25,08,13,7.60
2016,02,25,08,14,7.60
2016,02,25,08,15,7.70
2016,02,25,08,16,7.70
2016,02,25,08,17,7.80
2016,02,25,08,18,7.80
2016,02,25,08,19,7.80
2016,02,25,08,20,7.90
2016,02,25,08,21,7.90
2016,02,25,08,22,7.90
2016,02,25,08,23,8.00
2016,02,25,08,24,8.00
2016,02,25,08,25,8.10
2016,02,25,08,26,8.10
2016,02,25,08,27,8.10
2016,02,25,08,28,8.10
2016,02,25,08,29,8.10
2016,02,25,08,30,8.10
2016,02,25,08,31,8.10
2016,02,25,08,32,8.10
2016,02,25,08,33,8.10
2016,02,25,08,34,8.10
2016,02,25,08,35,8.10
2016,02,25,08,36,8.10
2016,02,25,08,37,8.10
2016,02,25,08,38,8.10
2016,02,25,08,39,8.10
2016,02,25,08,40,8.10
2016,02,25,08,41,8.10
2016,02,25,08,42,8.10
2016,02,25,08,43,8.10
2016,02,25,08,44,8.10
2016,02,25,08,45,8.10
2016,02,25,08,46,8.10
2016,02,25,08,47,8.10
2016,02,25,08,48,8.10
2016,02,25,08,49,8.10
2016,02,25,08,50,8.10
2016,02,25,08,51,8.10
2016,02,25,08,52,8.10
2016,02,25,08,53,8.10
2016,02,25,08,54,8.10
2016,02,25,08,55,8.10
2016,02,25,08,56,8.10
2016,02,25,08,57,8.10
2016,02,25,08,58,8.10
2016,02,25,08,59,8.10
2016,02,25,09,00,8.10
2016,02,25,09,01,8.10
2016,02,25,09,02,8.10
2016,02,25,09,03,8.10
2016,02,25,09,04,8.10
2016,02,25,09,05,8.10
2016,02,25,09,06,8.10
2016,02,25,09,07,8.10
2016,02,25,09,08,8.20
2016,02,25,09,09,8.20
2016,02,25,09,10,8.20
2016,02,25,09,11,8.20
2016,02,25,09,12,8.20
2016,02,25,09,13,8.20
2016,02,25,09,14,8.20
2016,02,25,09,15,8.20
2016,02,25,09,16,8.20
2016,02,25,09,17,8.20
2016,02,25,09,18,8.30
2016,02,25,09,19,8.30
2016,02,25,09,20,8.30
2016,02,25,09,21,8.30
2016,02,25,09,22,8.30
2016,02,25,09,23,8.30
2016,02,25,09,24,8.40
2016,02,25,09,25,8.40
2016,02,25,09,26,8.40
2016,02,25,09,27,8.50
2016,02,25,09,28,8.50
2016,02,25,09,29,8.50
2016,02,25,09,30,8.60
2016,02,25,09,31,8.60
2016,02,25,09,32,8.60
2016,02,25,09,33,8.60
2016,02,25,09,34,8.60
2016,02,25,09,35,8.60
2016,02,25,09,36,8.70
2016,02,25,09,37,8.70
2016,02,25,09,38,8.70
2016,02,25,09,39,8.70
2016,02,25,09,40,8.80
2016,02,25,09,41,8.80
2016,02,25,09,42,8.80
2016,02,25,09,43,8.90
2016,02,25,09,44,8.90
2016,02,25,09,45,8.90
2016,02,25,09,46,9.00
2016,02,25,09,47,9.00
2016,02,25,09,48,9.10
2016,02,25,09,49,9.10
2016,02,25,09,50,9.10
2016,02,25,09,51,9.20
2016,02,25,09,52,9.20
2016,02,25,09,53,9.20
2016,02,25,09,54,9.20
2016,02,25,09,55,9.20
2016,02,25,09,56,9.20
2016,02,25,09,57,9.20
2016,02,25,09,58,9.30
2016,02,25,09,59,9.30
2016,02,25,10,00,9.30
2016,02,25,10,01,9.30
2016,02,25,10,02,9.30
2016,02,25,10,03,9.40
2016,02,25,10,04,9.40
2016,02,25,10,05,9.40
2016,02,25,10,06,9.50
2016,02,25,10,07,9.50
2016,02,25,10,08,9.50
2016,02,25,10,09,9.50
2016,02,25,10,10,9.60
2016,02,25,10,11,9.60
2016,02,25,10,12,9.60
2016,02,25,10,13,9.60
2016,02,25,10,14,9.60
2016,02,25,10,15,9.60
2016,02,25,10,16,9.70
2016,02,25,10,17,9.70
2016,02,25,10,18,9.70
2016,02,25,10,19,9.80
2016,02,25,10,20,9.80
2016,02,25,10,21,9.80
2016,02,25,10,22,9.80
2016,02,25,10,23,9.90
2016,02,25,10,24,9.90
2016,02,25,10,25,10.00
2016,02,25,10,26,10.00
2016,02,25,10,27,10.00
2016,02,25,10,28,10.00
2016,02,25,10,29,10.10
2016,02,25,10,30,10.10
2016,02,25,10,31,10.10
2016,02,25,10,32,10.10
2016,02,25,10,33,10.10
2016,02,25,10,34,10.10
2016,02,25,10,35,10.10
2016,02,25,10,36,10.10
2016,02,25,10,37,10.10
2016,02,25,10,38,10.20
2016,02,25,10,39,10.20
2016,02,25,10,40,10.20
2016,02,25,10,41,10.10
2016,02,25,10,42,10.10
2016,02,25,10,43,10.10
2016,02,25,10,44,10.10
2016,02,25,10,45,10.10
2016,02,25,10,46,10.10
2016,02,25,10,47,10.20
2016,02,25,10,48,10.20
2016,02,25,10,49,10.30
2016,02,25,10,50,10.40
2016,02,25,10,51,10.50
2016,02,25,10,52,10.50
2016,02,25,10,53,10.60
2016,02,25,10,54,10.60
2016,02,25,10,55,10.70
2016,02,25,10,56,10.70
2016,02,25,10,57,10.70
2016,02,25,10,58,10.70
2016,02,25,10,59,10.70
2016,02,25,11,00,10.70
2016,02,25,11,01,10.70
2016,02,25,11,02,10.80
2016,02,25,11,03,10.80
2016,02,25,11,04,10.90
2016,02,25,11,05,10.90
2016,02,25,11,06,10.90
2016,02,25,11,07,10.90
2016,02,25,11,08,10.90
2016,02,25,11,09,10.90
2016,02,25,11,10,10.90
2016,02,25,11,11,10.90
2016,02,25,11,12,10.90
2016,02,25,11,13,10.90
2016,02,25,11,14,10.90
2016,02,25,11,15,11.00
2016,02,25,11,16,11.00
2016,02,25,11,17,11.00
2016,02,25,11,18,11.00
2016,02,25,11,19,11.00
2016,02,25,11,20,11.00
2016,02,25,11,21,11.00
2016,02,25,11,22,11.10
2016,02,25,11,23,11.10
2016,02,25,11,24,11.10
2016,02,25,11,25,11.10
2016,02,25,11,26,11.10
2016,02,25,11,27,11.10
2016,02,25,11,28,11.10
2016,02,25,11,29,11.10
2016,02,25,11,30,11.10
2016,02,25,11,31,11.10
2016,02,25,11,32,11.00
2016,02,25,11,33,11.00
2016,02,25,11,34,11.00
2016,02,25,11,35,11.00
2016,02,25,11,36,11.10
2016,02,25,11,37,11.10
2016,02,25,11,38,11.10
2016,02,25,11,39,11.20
2016,02,25,11,40,11.20
2016,02,25,11,41,11.20
2016,02,25,11,42,11.20
2016,02,25,11,43,11.20
2016,02,25,11,44,11.10
2016,02,25,11,45,11.20
2016,02,25,11,46,11.20
2016,02,25,11,47,11.20
2016,02,25,11,48,11.20
2016,02,25,11,49,11.20
2016,02,25,11,50,11.30
2016,02,25,11,51,11.30
2016,02,25,11,52,11.40
2016,02,25,11,53,11.50
2016,02,25,11,54,11.50
2016,02,25,11,55,11.50
2016,02,25,11,56,11.60
2016,02,25,11,57,11.60
2016,02,25,11,58,11.60
2016,02,25,11,59,11.60
2016,02,25,12,00,11.60
2016,02,25,12,01,11.60
2016,02,25,12,02,11.60
2016,02,25,12,03,11.60
2016,02,25,12,04,11.60
2016,02,25,12,05,11.50
2016,02,25,12,06,11.60
2016,02,25,12,07,11.60
2016,02,25,12,08,11.60
2016,02,25,12,09,11.60
2016,02,25,12,10,11.60
2016,02,25,12,11,11.60
2016,02,25,12,12,11.60
2016,02,25,12,13,11.70
2016,02,25,12,14,11.60
2016,02,25,12,15,11.60
2016,02,25,12,16,11.60
2016,02,25,12,17,11.60
2016,02,25,12,18,11.60
2016,02,25,12,19,11.70
2016,02,25,12,20,11.60
2016,02,25,12,21,11.70
2016,02,25,12,22,11.70
2016,02,25,12,23,11.70
2016,02,25,12,24,11.70
2016,02,25,12,25,11.80
2016,02,25,12,26,11.80
2016,02,25,12,27,11.70
2016,02,25,12,28,11.70
2016,02,25,12,29,11.70
2016,02,25,12,30,11.70
2016,02,25,12,31,11.70
2016,02,25,12,32,11.70
2016,02,25,12,33,11.80
2016,02,25,12,34,11.80
2016,02,25,12,35,11.80
2016,02,25,12,36,11.90
2016,02,25,12,37,11.90
2016,02,25,12,38,11.90
2016,02,25,12,39,12.00
2016,02,25,12,40,12.00
2016,02,25,12,41,12.00
2016,02,25,12,42,12.00
2016,02,25,12,43,11.90
2016,02,25,12,44,11.90
2016,02,25,12,45,11.90
2016,02,25,12,46,11.90
2016,02,25,12,47,11.90
2016,02,25,12,48,11.90
2016,02,25,12,49,11.90
2016,02,25,12,50,11.90
2016,02,25,12,51,11.90
2016,02,25,12,52,11.90
2016,02,25,12,53,11.90
2016,02,25,12,54,12.00
2016,02,25,12,55,11.90
2016,02,25,12,56,11.90
2016,02,25,12,57,11.90
2016,02,25,12,58,11.90
2016,02,25,12,59,11.90
2016,02,25,13,00,11.90
2016,02,25,13,01,11.90
2016,02,25,13,02,11.90
2016,02,25,13,03,11.90
2016,02,25,13,04,11.90
2016,02,25,13,05,11.90
2016,02,25,13,06,11.90
2016,02,25,13,07,12.00
2016,02,25,13,08,12.10
2016,02,25,13,09,12.10
2016,02,25,13,10,12.10
2016,02,25,13,11,12.10
2016,02,25,13,12,12.20
2016,02,25,13,13,12.20
2016,02,25,13,14,12.20
2016,02,25,13,15,12.10
2016,02,25,13,16,12.10
2016,02,25,13,17,12.20
2016,02,25,13,18,12.20
2016,02,25,13,19,12.20
2016,02,25,13,20,12.20
2016,02,25,13,21,12.30
2016,02,25,13,22,12.30
2016,02,25,13,23,12.30
2016,02,25,13,24,12.30
2016,02,25,13,25,12.30
2016,02,25,13,26,12.30
2016,02,25,13,27,12.40
2016,02,25,13,28,12.40
2016,02,25,13,29,12.40
2016,02,25,13,30,12.40
2016,02,25,13,31,12.50
2016,02,25,13,32,12.50
2016,02,25,13,33,12.50
2016,02,25,13,34,12.60
2016,02,25,13,35,12.60
2016,02,25,13,36,12.60
2016,02,25,13,37,12.70
2016,02,25,13,38,12.70
2016,02,25,13,39,12.70
2016,02,25,13,40,12.70
2016,02,25,13,41,12.70
2016,02,25,13,42,12.70
2016,02,25,13,43,12.70
2016,02,25,13,44,12.70
2016,02,25,13,45,12.70
2016,02,25,13,46,12.60
2016,02,25,13,47,12.60
2016,02,25,13,48,12.60
2016,02,25,13,49,12.60
2016,02,25,13,50,12.60
2016,02,25,13,51,12.60
2016,02,25,13,52,12.50
2016,02,25,13,53,12.50
2016,02,25,13,54,12.50
2016,02,25,13,55,12.50
2016,02,25,13,56,12.50
2016,02,25,13,57,12.60
2016,02,25,13,58,12.60
2016,02,25,13,59,12.60
2016,02,25,14,00,12.70
2016,02,25,14,01,12.70
2016,02,25,14,02,12.60
2016,02,25,14,03,12.60
2016,02,25,14,04,12.60
2016,02,25,14,05,12.60
2016,02,25,14,06,12.60
2016,02,25,14,07,12.60
2016,02,25,14,08,12.70
2016,02,25,14,09,12.70
2016,02,25,14,10,12.70
2016,02,25,14,11,12.70
2016,02,25,14,12,12.70
2016,02,25,14,13,12.70
2016,02,25,14,14,12.70
2016,02,25,14,15,12.70
2016,02,25,14,16,12.70
2016,02,25,14,17,12.70
2016,02,25,14,18,12.70
2016,02,25,14,19,12.70
2016,02,25,14,20,12.70
2016,02,25,14,21,12.70
2016,02,25,14,22,12.70
2016,02,25,14,23,12.70
2016,02,25,14,24,12.70
2016,02,25,14,25,12.70
2016,02,25,14,26,12.70
2016,02,25,14,27,12.70
2016,02,25,14,28,12.70
2016,02,25,14,29,12.80
2016,02,25,14,30,12.80
2016,02,25,14,31,12.80
2016,02,25,14,32,12.80
2016,02,25,14,33,12.80
2016,02,25,14,34,12.90
2016,02,25,14,35,12.90
2016,02,25,14,36,13.00
2016,02,25,14,37,12.90
2016,02,25,14,38,12.90
2016,02,25,14,39,12.90
2016,02,25,14,40,12.90
2016,02,25,14,41,12.90
2016,02,25,14,42,12.90
2016,02,25,14,43,12.90
2016,02,25,14,44,12.90
2016,02,25,14,45,12.90
2016,02,25,14,46,12.90
2016,02,25,14,47,12.90
2016,02,25,14,48,12.90
2016,02,25,14,49,12.90
2016,02,25,14,50,12.90
2016,02,25,14,51,12.90
2016,02,25,14,52,12.90
2016,02,25,14,53,13.00
2016,02,25,14,54,13.00
2016,02,25,14,55,13.10
2016,02,25,14,56,13.10
2016,02,25,14,57,13.10
2016,02,25,14,58,13.10
2016,02,25,14,59,13.10
2016,02,25,15,00,13.10
2016,02,25,15,01,13.20
2016,02,25,15,02,13.20
2016,02,25,15,03,13.20
2016,02,25,15,04,13.20
2016,02,25,15,05,13.20
2016,02,25,15,06,13.20
2016,02,25,15,07,13.20
2016,02,25,15,08,13.20
2016,02,25,15,09,13.10
2016,02,25,15,10,13.10
2016,02,25,15,11,13.10
2016,02,25,15,12,13.00
2016,02,25,15,13,13.00
2016,02,25,15,14,12.90
2016,02,25,15,15,12.90
2016,02,25,15,16,12.90
2016,02,25,15,17,13.00
2016,02,25,15,18,13.00
2016,02,25,15,19,12.90
2016,02,25,15,20,12.90
2016,02,25,15,21,12.90
2016,02,25,15,22,12.90
2016,02,25,15,23,12.90
2016,02,25,15,24,12.90
2016,02,25,15,25,12.90
2016,02,25,15,26,12.90
2016,02,25,15,27,12.90
2016,02,25,15,28,13.00
2016,02,25,15,29,13.00
2016,02,25,15,30,13.00
2016,02,25,15,31,13.00
2016,02,25,15,32,13.00
2016,02,25,15,33,13.00
2016,02,25,15,34,13.00
2016,02,25,15,35,13.00
2016,02,25,15,36,13.00
2016,02,25,15,37,13.00
2016,02,25,15,38,13.00
2016,02,25,15,39,13.00
2016,02,25,15,40,13.00
2016,02,25,15,41,13.00
2016,02,25,15,42,13.00
2016,02,25,15,43,13.00
2016,02,25,15,44,13.00
2016,02,25,15,45,13.00
2016,02,25,15,46,13.10
2016,02,25,15,47,13.10
2016,02,25,15,48,13.10
2016,02,25,15,49,13.10
2016,02,25,15,50,13.10
2016,02,25,15,51,13.10
2016,02,25,15,52,13.10
2016,02,25,15,53,13.00
2016,02,25,15,54,13.00
2016,02,25,15,55,13.00
2016,02,25,15,56,13.00
2016,02,25,15,57,13.00
2016,02,25,15,58,13.10
2016,02,25,15,59,13.10
2016,02,25,16,00,13.10
2016,02,25,16,01,13.10
2016,02,25,16,02,13.20
2016,02,25,16,03,13.20
2016,02,25,16,04,13.20
2016,02,25,16,05,13.20
2016,02,25,16,06,13.20
2016,02,25,16,07,13.20
2016,02,25,16,08,13.20
2016,02,25,16,09,13.10
2016,02,25,16,10,13.10
2016,02,25,16,11,13.10
2016,02,25,16,12,13.10
2016,02,25,16,13,13.10
2016,02,25,16,14,13.10
2016,02,25,16,15,13.10
2016,02,25,16,16,13.10
2016,02,25,16,17,13.10
2016,02,25,16,18,13.10
2016,02,25,16,19,13.10
2016,02,25,16,20,13.10
2016,02,25,16,21,13.10
2016,02,25,16,22,13.10
2016,02,25,16,23,13.10
2016,02,25,16,24,13.00
2016,02,25,16,25,13.00
2016,02,25,16,26,13.00
2016,02,25,16,27,13.00
2016,02,25,16,28,12.90
2016,02,25,16,29,12.90
2016,02,25,16,30,12.90
2016,02,25,16,31,12.90
2016,02,25,16,32,12.90
2016,02,25,16,33,12.90
2016,02,25,16,34,12.80
2016,02,25,16,35,12.80
2016,02,25,16,36,12.80
2016,02,25,16,37,12.80
2016,02,25,16,38,12.80
2016,02,25,16,39,12.80
2016,02,25,16,40,12.80
2016,02,25,16,41,12.70
2016,02,25,16,42,12.70
2016,02,25,16,43,12.70
2016,02,25,16,44,12.70
2016,02,25,16,45,12.70
2016,02,25,16,46,12.60
2016,02,25,16,47,12.60
2016,02,25,16,48,12.50
2016,02,25,16,49,12.50
2016,02,25,16,50,12.40
2016,02,25,16,51,12.40
2016,02,25,16,52,12.40
2016,02,25,16,53,12.40
2016,02,25,16,54,12.30
2016,02,25,16,55,12.30
2016,02,25,16,56,12.30
2016,02,25,16,57,12.20
2016,02,25,16,58,12.20
2016,02,25,16,59,12.20
2016,02,25,17,00,12.20
2016,02,25,17,01,12.20
2016,02,25,17,02,12.20
2016,02,25,17,03,12.10
2016,02,25,17,04,12.10
2016,02,25,17,05,12.10
2016,02,25,17,06,12.10
2016,02,25,17,07,12.10
2016,02,25,17,08,12.00
2016,02,25,17,09,12.00
2016,02,25,17,10,12.00
2016,02,25,17,11,12.00
2016,02,25,17,12,11.90
2016,02,25,17,13,11.90
2016,02,25,17,14,11.90
2016,02,25,17,15,11.80
2016,02,25,17,16,11.80
2016,02,25,17,17,11.80
2016,02,25,17,18,11.80
2016,02,25,17,19,11.80
2016,02,25,17,20,11.70
2016,02,25,17,21,11.70
2016,02,25,17,22,11.70
2016,02,25,17,23,11.70
2016,02,25,17,24,11.60
2016,02,25,17,25,11.60
2016,02,25,17,26,11.60
2016,02,25,17,27,11.50
2016,02,25,17,28,11.50
2016,02,25,17,29,11.50
2016,02,25,17,30,11.40
2016,02,25,17,31,11.40
2016,02,25,17,32,11.40
2016,02,25,17,33,11.40
2016,02,25,17,34,11.30
2016,02,25,17,35,11.30
2016,02,25,17,36,11.30
2016,02,25,17,37,11.30
2016,02,25,17,38,11.30
2016,02,25,17,39,11.20
2016,02,25,17,40,11.20
2016,02,25,17,41,11.20
2016,02,25,17,42,11.20
2016,02,25,17,43,11.10
2016,02,25,17,44,11.10
2016,02,25,17,45,11.10
2016,02,25,17,46,11.10